{"data":{"norad_id":54051,"epoch":"2026-05-25T00:26:18.014784Z","epoch_age_seconds":66705,"freshness":"FRESH","line1":"1 54051U 22136A   26145.01826406  .00000746  00000+0  64652-4 0  9997","line2":"2 54051  53.2186   1.7065 0001382  95.4577 264.6573 15.09038370198368","mean_motion":15.0903837,"eccentricity":0.0001382,"inclination_deg":53.2186,"raan_deg":1.7065,"arg_perigee_deg":95.4577,"mean_anomaly_deg":264.6573,"bstar":6.4652e-5,"rev_number":19836,"period_min":95.425008974424,"perigee_km":538.18115037271,"apogee_km":540.09308493883,"semimajor_km":6917.2741176558,"source":"CELESTRAK","updated_at":"2026-05-25T13:38:17.627442Z"}}